Погода в Житомире

Хотите узнать прогноз погоды в Житомире? Тогда Вам сюда: Погода в Житомире

Поиск расширенной информации на нашем сайте:

Полезная информация:

Новости сайта



02.01.2020
Опубликован Долгосрочный прогноз погоды по городам России и ближнего зарубежья на январь 2020 года.
Карты: Прогноз на январь и февраль 2020 года, Сравнение прогнозируемой аномалии приземной температуры воздуха на январь 2020 года по разным моделям.




Погода в Житомире - сегодня

Время (UTC), дата Ветер
(°,м/с) 
Видим.   Явления Облачность Т
(°С)
Тd
(°С)
f(%) Тe
(°С)
Pmin
(гПа)
dP
(гПа)
Po
(мм)
O2
(г/м3)
Тmin Tmax R s Состояние
почвы
00 16.01.22 310 (СЗ) 10 км    10/10 600 м 
[Sc]
+1.1 -5.2 63 1020.4  1.2  745  299           
03 16.01.22 310 (СЗ) 10 км    10/8 600 м средняя 
[Sc|Ac und]
+0.7 -5.8 62 -1  1020.8  0.4  745  300           
06 16.01.22 320 (СЗ) 10 км    10/8 600 м средняя 
[Sc|Ac und]
+0.3 -6.3 61 1021.2  0.3  745  301  +0.2      мокрый или
старый снег
50-90% 
09 16.01.22 320 (СЗ) 10 км    9/6 600 м средняя 
[Sc|Ac trans]
+0.3 -7.1 58 -1  1021.8  0.6  746  301           
12 16.01.22 310 (СЗ) 10 км    8/3 600 м средняя, верхняя 
[Sc|Ac trans|Ci fib]
+0.9 -6.7 57 1020.3  -1.4  745  300           
15 16.01.22 290 (З) 10 км    4/0 средняя, верхняя 
[Ac trans|Cc]
-0.1 -6 64 +1  1019.4  -1  744  300           
18 16.01.22 тихо ()   10 км    3/0 средняя 
[Ac trans]
-2.4 -5.1 82 -2  1018.1  -1.5  743  302    +1.4       
21 16.01.22 230 (ЮЗ) 10 км    8/0 верхняя 
[Cs]
-3 -5 86 -4  1015.6  -2.5  741  302           
00 17.01.22 260 (З) 10 км    10/5 600 м средняя 
[Sc|Ac As]
-0.5 -4.6 74 -2  1011.9  -3.3  738  299           
03 17.01.22 270 (З) 4000 м  слаб. снег  10/3 300 м средняя 
[Frnb|As op]
+0.6 -4.4 69 -2  1008.6  -3.1  736  296           
06 17.01.22 260 (З) 10 км  {снег}  10/10 600 м кучево-дожд. 
[Cb cap]
+0.8 -1.9 82 -1  1006.2  -2.3  734  295  -3.1    0.2  мокрый или
старый снег
50-90% 
09 17.01.22 250 (З) 10 км  {ливн. осадки}  10/10 300 м кучево-дожд. 
[Cb cap]
+1.1 -1.7 82 -1  1002.4  -3.7  732  294           
12 17.01.22 260 (З) 4000 м  слаб. ливневой снег  10/10 300 м кучево-дожд. 
[Cb cap]
+1.2 -0.2 90 -2  997.8  -4.4  728  292      0.5     
15 17.01.22 260 (З) 4000 м  слаб. ливневой дождь со снегом  10/10 200 м кучево-дожд. 
[Cb cap]
+0.7 +0.2 96 -2  995.2  -2.6  726  292           
18 17.01.22 310 (СЗ) 10 км  в посл. час ливневой снег  10/10 300 м кучево-дожд. 
[Cb cap]
+0.2 -4.6 70 -2  999.7  4.3  730  294    +2.5     
21 17.01.22 300 (СЗ) 4000 м  слаб. ливневой снег  10/10 300 м кучево-дожд. 
[Cb cap]
-0.6 -3.3 82 -3  1000.7  0.9  730  295           
00 18.01.22 320 (СЗ) 10 км  в посл. час ливневой снег  8/8 300 м 
[Sc]
-1.1 -5 75 -4  1004.3  3.4  733  297      0.9     
03 18.01.22 330 (СЗ) 10 км    6/6 300 м 
[Sc]
-2.7 -9.2 61 -6  1009.4  4.8  736  301           
06 18.01.22 330 (СЗ) 10 км    4/4 600 м 
[Sc]
-3.3 -9.2 64 -6  1012.4  2.9  739  302  -3.4    0.9  равномерный
сухой снег
100% 
09 18.01.22 350 (С) 10 км  {ливн. осадки}  6/6 600 м кучево-дожд. 
[Cb cap]
-1.1 -8.9 55 -4  1014.4  2.2  740  300           
12 18.01.22 350 (С) 4000 м  слаб. ливневой снег  8/8 600 м кучево-дожд. 
[Cb cap]
-2.7 -5.7 80 -5  1016.7  742  302      0.3     
15 18.01.22 340 (С) 10 км    10/4 600 м верхняя 
[Sc|Cs]
-2.2 -8.9 60 -4  1019.9  3.2  744  303           
18 18.01.22 340 (С) 10 км    ясно 
-3.3 -8.8 66 -4  1023.3  3.2  747  305    -0.4  0.3     
21 18.01.22 350 (С) 10 км    ясно 
-4.1 -10.4 61 -5  1025.9  2.4  748  307           
00 19.01.22 320 (СЗ) 10 км    ясно 
-5.6 -9.8 72 -5  1027.2  1.1  749  309           
Время (UTC), дата Ветер
(°,м/с) 
Видим.   Явления Облачность Т
(°С)
Тd
(°С)
f(%) Тe
(°С)
Pmin
(гПа)
dP
(гПа)
Po
(мм)
O2
(г/м3)
Тmin Tmax R s Состояние
почвы

Для получения пояснительной информации подведите курсор к названию столбца.

ПОГОДА в Житомире - архив

Всё, что Вы хотите узнать о погоде в Житомире - удобно и подробно!

Выберите нужную дату (начиная с 1 января 2019* года) и нажмите кнопку "Найти".
Будут отображены архивные сводки погоды по пункту Житомир, начиная с указанной даты.


Отображать данные в формате CSV (для использования в таблицах Excel)


Внимание! Наш архив погоды предназначен исключительно для личного некоммерческого использования в познавательных целях. Если Вам необходимы официальные справки о состоянии погоды (для производственных, юридических, коммерческих и т.п. целей), обращайтесь в органы Росгидромета.

*Примечание: данная дата относится к архиву по метеостанциям СССР (Россия, СНГ, Балтия).
Архив по метеостанциям Зарубежной Европы и Азии (кроме Китая) хранится 10 дней, по другим регионам земного шара (Китай, Африка, Америка, Австралия, Океания) - 1 день.

Житомир - район местоположения метеостанции


Название, широта, долгота, высота метеостанции:
Житомир 50.2°ш. 28.7°д. 224 м над ур. моря [Украина]

Дополнительная информация

В oтличие oт бoльшинства пoгoдных сайтoв мы публикуем пoдрoбную метеoинфoрмацию в детальнoм прoфессиoнальнoм фoрмате.

Характеристики температуры и влажнoсти вoздуха измеряются на высoте 2 м в тени вдали oт зданий и деревьев.
Скoрoсть ветра измеряется на высoте 10 м (на урoвне рoста челoвека скoрoсть ветра ниже в 1.5-2 раза). Если метеoстанция нахoдится в гoрoде или в лесу, тo скoрoсть ветра занижена на 2-4 м/с пo сравнению с oткрытым местoм. Скoрoсть ветра над акватoриями крупных рек и oзёр, а также на вершинах хoлмoв на 2-5 м/с выше, чем в oбычных услoвиях.
Атмoсфернoе давление в разных тoчках местнoсти мoжет значительнo oтличаться oт давления на метеoстанции, в зависимoсти oт услoвий рельефа (при пoдъёме на 10 м давление пoнижается примернo на 1 мм рт.ст.).